Location: Cañada de la Miga
(34.7595°N, 106.2317°W)
Time: 03:57:15
(UTC+00:00)

A-11 Canister half - Visible Passes

Search period start: 28 November 2021 00:00
Search period end: 08 December 2021 00:00
Orbit: 1524 x 1684 km, 47.3° (Epoch: 27 November)

Date Brightness Start Highest point End Pass type
(mag) Time Alt. Az. Time Alt. Az. Time Alt. Az.
28 Nov 10.5 09:20:50 27° ENE 09:20:50 27° ENE 09:24:36 10° ENE visible
28 Nov 9.3 11:19:09 49° NW 11:20:17 51° NNW 11:29:53 10° NE visible
28 Nov 9.8 13:18:07 10° WNW 13:27:23 40° N 13:36:23 10° ENE visible
29 Nov 10.9 09:00:33 20° ENE 09:00:33 20° ENE 09:02:53 10° ENE visible
29 Nov 9.3 10:58:51 52° NNW 10:58:51 52° NNW 11:08:12 10° NE visible
29 Nov 9.8 12:57:10 13° WNW 13:05:36 40° N 13:14:36 10° ENE visible
30 Nov 11.2 08:40:13 14° ENE 08:40:13 14° ENE 08:41:11 10° ENE visible
30 Nov 9.5 10:38:31 49° N 10:38:31 49° N 10:46:29 10° NE visible
30 Nov 9.8 12:36:49 18° WNW 12:43:48 40° N 12:52:50 10° ENE visible
01 Dec 9.8 10:18:09 42° NNE 10:18:09 42° NNE 10:24:47 10° NE visible
01 Dec 9.8 12:16:27 23° NW 12:22:00 40° N 12:31:04 10° ENE visible
02 Dec 10.1 09:57:45 35° NE 09:57:45 35° NE 10:03:04 10° NE visible
02 Dec 9.7 11:56:04 29° NW 12:00:12 40° N 12:09:18 10° ENE visible
03 Dec 10.5 09:37:20 28° NE 09:37:20 28° NE 09:41:22 10° NE visible
03 Dec 9.7 11:35:38 34° NNW 11:38:24 40° N 11:47:32 10° ENE visible
04 Dec 10.8 09:16:54 21° NE 09:16:54 21° NE 09:19:40 10° NE visible
04 Dec 9.7 11:15:12 38° NNW 11:16:35 40° N 11:25:46 10° ENE visible
04 Dec 9.5 13:13:51 10° NW 13:23:38 54° NNE 13:33:05 10° E visible
05 Dec 11.0 08:56:27 16° NE 08:56:27 16° NE 08:57:58 10° NE visible
05 Dec 9.7 10:54:45 40° N 10:54:47 40° N 11:04:00 10° ENE visible
05 Dec 9.6 12:53:03 13° NW 13:01:53 53° NNE 13:11:20 10° E visible
06 Dec 11.3 08:36:01 11° NE 08:36:01 11° NE 08:36:16 10° NE visible
06 Dec 9.8 10:34:19 39° NNE 10:34:19 39° NNE 10:42:14 10° ENE visible
06 Dec 9.6 12:32:36 18° NW 12:40:08 51° NNE 12:49:34 10° E visible
07 Dec 10.1 10:13:52 35° NNE 10:13:52 35° NNE 10:20:28 10° ENE visible
07 Dec 9.6 12:12:10 24° NW 12:18:22 50° NNE 12:27:48 10° E visible
